SP5QWJ Weather Reports


Display with metric or nautical units.
time (UTC)temp
F
wind
direction
speed
MPH
gust
MPH
rain 1hr
in
rain 24hr
in
rain mn
in
humidity
%
barometer
mb
20260902153448 70 0.0 0.0 0.00 0.00 0.00 96 1017.7
20260902151936 70 0.0 0.0 0.00 0.00 0.00 94 1017.7
20260902150428 71 0.0 0.0 0.00 0.00 0.00 93 1017.9
20260902144916 71 0.0 0.0 0.00 0.00 0.00 94 1018.0
20260902143409 71 0.0 0.0 0.00 0.00 0.00 93 1018.1
20260902141901 71 0.0 0.0 0.00 0.00 0.00 94 1018.2
20260902140359 70 0.0 0.0 0.00 0.00 0.00 94 1018.2
20260902134848 71 0.0 0.0 0.00 0.00 0.00 94 1018.2
20260902133341 72 0.0 0.0 0.00 0.00 0.00 93 1018.1
20260902131842 72 0.0 0.0 0.00 0.00 0.00 94 1018.2
20260902130335 73 0.0 0.0 0.00 0.00 0.00 94 1018.3
20260902124826 74 0.0 0.0 0.00 0.00 0.00 93 1018.2
20260902123320 73 0.0 0.0 0.00 0.00 0.00 96 1018.3
20260902121815 71 0.0 0.0 0.00 0.00 0.00 96 1018.4
20260902120308 72 0.0 0.0 0.00 0.00 0.00 95 1018.4
20260902114756 73 0.0 0.0 0.00 0.00 0.00 93 1018.5
20260902113250 73 0.0 0.0 0.00 0.00 0.00 95 1018.6
20260902111742 74 0.0 0.0 0.00 0.00 0.00 96 1018.8
20260902110234 73 0.0 0.0 0.00 0.00 0.00 99 1018.9
20260902104728 73 0.0 0.0 0.00 0.00 0.00 99 1019.0
20260902103220 73 0.0 0.0 0.00 0.00 0.00 100 1018.9
20260902101704 71 0.0 0.0 0.00 0.00 0.00 100 1019.0
20260902100200 72 0.0 0.0 0.00 0.00 0.00 100 1018.9
20260902094648 73 0.0 0.0 0.00 0.00 0.00 100 1019.0
20260902093138 74 0.0 0.0 0.00 0.00 0.00 100 1019.1
20260902091631 74 0.0 0.0 0.00 0.00 0.00 100 1018.9
20260902090128 72 0.0 0.0 0.00 0.00 0.00 100 1018.9
20260902084621 71 0.0 0.0 0.00 0.00 0.00 100 1019.0
20260902083114 74 0.0 0.0 0.00 0.00 0.00 100 1019.0
20260902081609 69 0.0 0.0 0.00 0.00 0.00 100 1018.9
20260902080103 68 0.0 0.0 0.00 0.00 0.00 100 1018.8
20260902074557 67 0.0 0.0 0.00 0.00 0.00 100 1018.8
20260902073048 67 0.0 0.0 0.00 0.00 0.00 100 1018.8
20260902071540 65 0.0 0.0 0.00 0.00 0.00 100 1018.7
20260902070034 64 0.0 0.0 0.00 0.00 0.00 100 1018.5
20260902064521 64 0.0 0.0 0.00 0.00 0.00 100 1018.4
20260902063013 64 0.0 0.0 0.00 0.00 0.00 100 1018.4
20260902061459 63 0.0 0.0 0.00 0.00 0.00 100 1018.3
20260902055950 62 0.0 0.0 0.00 0.00 0.00 100 1018.3
20260902054448 61 0.0 0.0 0.00 0.00 0.00 100 1018.2
20260902052937 60 0.0 0.0 0.00 0.00 0.00 100 1018.1
20260902051430 59 0.0 0.0 0.00 0.00 0.00 100 1018.1
20260902045918 59 0.0 0.0 0.00 0.00 0.00 100 1017.8
20260902044418 59 0.0 0.0 0.00 0.00 0.00 100 1017.7
20260902042904 58 0.0 0.0 0.00 0.00 0.00 100 1017.6
20260902041352 58 0.0 0.0 0.00 0.00 0.00 100 1017.6
20260902035845 58 0.0 0.0 0.00 0.00 0.00 100 1017.6
20260902034338 59 0.0 0.0 0.00 0.00 0.00 100 1017.4
20260902032829 59 0.0 0.0 0.00 0.00 0.00 100 1017.5
20260902031321 60 0.0 0.0 0.00 0.00 0.00 100 1017.5
20260902025813 60 0.0 0.0 0.00 0.00 0.00 100 1017.5
20260902024305 60 0.0 0.0 0.00 0.00 0.00 100 1017.5
20260902022802 60 0.0 0.0 0.00 0.00 0.00 100 1017.5
20260902021250 60 0.0 0.0 0.00 0.00 0.00 100 1017.5
20260902015747 59 0.0 0.0 0.00 0.00 0.00 100 1017.5
20260902014241 60 0.0 0.0 0.00 0.00 0.00 100 1017.6
20260902012736 60 0.0 0.0 0.00 0.00 0.00 100 1017.6
20260902011229 60 0.0 0.0 0.00 0.00 0.00 100 1017.6
20260902005722 60 0.0 0.0 0.00 0.00 0.00 100 1017.6
20260902004214 61 0.0 0.0 0.00 0.00 0.00 100 1017.5
20260902002708 61 0.0 0.0 0.00 0.00 0.00 100 1017.4
20260902001201 61 0.0 0.0 0.00 0.00 0.00 100 1017.4
20260901235659 61 0.0 0.0 0.00 0.00 0.00 100 1017.4
20260901234149 62 0.0 0.0 0.00 0.00 0.00 100 1017.3
20260901232643 62 0.0 0.0 0.00 0.00 0.00 100 1017.2
20260901231130 62 0.0 0.0 0.00 0.00 0.00 100 1017.2
20260901225625 62 0.0 0.0 0.00 0.00 0.00 100 1017.3
20260901224114 63 0.0 0.0 0.00 0.00 0.00 100 1017.3
20260901222611 62 0.0 0.0 0.00 0.00 0.00 100 1017.2
20260901221103 62 0.0 0.0 0.00 0.00 0.00 100 1017.4
20260901215555 62 0.0 0.0 0.00 0.00 0.00 100 1017.4
20260901214048 62 0.0 0.0 0.00 0.00 0.00 100 1017.3
20260901212543 62 0.0 0.0 0.00 0.00 0.00 100 1017.3
20260901211039 62 0.0 0.0 0.00 0.00 0.00 100 1017.4
20260901205530 62 0.0 0.0 0.00 0.00 0.00 100 1017.3
20260901204026 62 0.0 0.0 0.00 0.00 0.00 100 1017.4
20260901202518 62 0.0 0.0 0.00 0.00 0.00 100 1017.3
20260901201013 62 0.0 0.0 0.00 0.00 0.00 100 1017.4
20260901195504 62 0.0 0.0 0.00 0.00 0.00 100 1017.3
20260901193952 62 0.0 0.0 0.00 0.00 0.00 100 1017.4
20260901192449 62 0.0 0.0 0.00 0.00 0.00 100 1017.4
20260901190943 62 0.0 0.0 0.00 0.00 0.00 100 1017.4
20260901185435 62 0.0 0.0 0.00 0.00 0.00 100 1017.4
20260901183926 63 0.0 0.0 0.00 0.00 0.00 100 1017.3
20260901182422 63 0.0 0.0 0.00 0.00 0.00 100 1017.1
20260901180902 63 0.0 0.0 0.00 0.00 0.00 100 1016.8
20260901175404 63 0.0 0.0 0.00 0.00 0.00 100 1016.7
20260901173902 64 0.0 0.0 0.00 0.00 0.00 100 1016.6
20260901172348 64 0.0 0.0 0.00 0.00 0.00 100 1016.5
20260901170832 65 0.0 0.0 0.00 0.00 0.00 100 1016.3
20260901165326 65 0.0 0.0 0.00 0.00 0.00 100 1016.3
20260901163804 66 0.0 0.0 0.00 0.00 0.00 100 1016.3
20260901162257 67 0.0 0.0 0.00 0.00 0.00 100 1016.2
20260901155221 67 0.0 0.0 0.00 0.00 0.00 100 1016.0